Starlink 32175

operational
NORAD ID: 60339 Int'l Des: 2024-136 Owner: SPXS Country: US Constellation: starlink
LEOCIRCULAR

About Starlink 32175

Description loading...

Live Position

Loading 3D Globe...

Upcoming Passes

Altitude History

Altitude vs Time

uPlot chart will show altitude changes over time

Two-Line Element Set

1 60339U 24136L 25352.56555951 .00000316 00000-0 22780-4 0 9998
2 60339 53.1615 92.5133 0001087 81.2358 278.8766 15.30193711 77245
Epoch: Dec 18, 2025 • Age: 14 hours

Current Status

Altitude 481.7 km
Velocity 7.62 km/s
Sub-Earth Point -21.97°S, 69.09°W
Launch Date Aug 2, 2024
Age 1.3 years
Type internet

Technical Details

Classification Payload
Mass 730.00 kg
Dry Mass 700.00 kg
Total Mass 730.00 kg
Length 0.30 m
Diameter 4.10 m
Span 29.00 m
Shape Box + pan
Manufacturer SPXS
Bus Type Starlink V2M
Phase Status In Orbit
Owner/State SPXS/US

Large Constellations

Loading constellations...